Location: Belfast
(54.5830°N, 5.9330°W)
Time: 22:23:21
(UTC+00:00)

ISS - Pass Details

Date: 23 September 2018
Orbit: 401 x 408 km, 51.6° (Epoch: 16 November)

Event Time Altitude Azimuth Distance (km) Brightness Sun altitude
Rises 21:31:45 0° 226° (SW) 2,340 0.3 -19.1°
Reaches altitude 10° 21:34:02 10° 213° (SSW) 1,479 -0.9 -19.4°
Enters shadow 21:34:43 14° 206° (SSW) 1,257 -1.4 -19.5°
